This is the latest recevied weather packets stored in our database for station/object N9WHM. If no packets are shown the sender has not sent any weather packets the latest 10 day(s).
| Time | Temp. | Humidity | Pressure | Rain* | Wind** | Luminosity | Snow |
|---|---|---|---|---|---|---|---|
| 1777522921 | 8.89° C | 77% | 1017.9 hPa | 0 mm | - | 0 W/m² | - |
| 1777522619 | 8.89° C | 76% | 1017.7 hPa | 0 mm | - | 0 W/m² | - |
| 1777522315 | 8.89° C | 76% | 1017.7 hPa | 0 mm | - | 0 W/m² | - |
| 1777522013 | 8.89° C | 73% | 1017.9 hPa | 0 mm | - | 0 W/m² | - |
| 1777521709 | 8.89° C | 73% | 1018 hPa | 0 mm | - | 0 W/m² | - |
| 1777521406 | 8.89° C | 74% | 1018.1 hPa | 0 mm | - | 0 W/m² | - |
| 1777521102 | 8.89° C | 76% | 1018 hPa | 0 mm | - | 0 W/m² | - |
| 1777520800 | 8.89° C | 75% | 1017.9 hPa | 0 mm | - | 0 W/m² | - |
| 1777520497 | 9.44° C | 72% | 1017.9 hPa | 0 mm | - | 0 W/m² | - |
| 1777520194 | 10° C | 71% | 1017.6 hPa | 0 mm | - | 0 W/m² | - |
| 1777519892 | 10° C | 70% | 1017.6 hPa | 0 mm | - | 0 W/m² | - |
| 1777519589 | 10° C | 70% | 1017.9 hPa | 0 mm | - | 0 W/m² | - |
| 1777519285 | 10° C | 69% | 1018 hPa | 0 mm | - | 0 W/m² | - |
| 1777518981 | 10° C | 71% | 1017.9 hPa | 0 mm | - | 0 W/m² | - |
| 1777518677 | 10° C | 71% | 1017.7 hPa | 0 mm | - | 0 W/m² | - |
| 1777518374 | 10° C | 72% | 1017.9 hPa | 0 mm | - | 0 W/m² | - |
| 1777518070 | 10° C | 73% | 1017.7 hPa | 0 mm | - | 0 W/m² | - |
| 1777517766 | 10° C | 73% | 1018 hPa | 0 mm | - | 0 W/m² | - |
| 1777517462 | 10° C | 75% | 1017.9 hPa | 0 mm | - | 0 W/m² | - |
| 1777517161 | 10° C | 74% | 1018.1 hPa | 0 mm | - | 0 W/m² | - |
| 1777516859 | 10.56° C | 74% | 1017.7 hPa | 0 mm | - | 0 W/m² | - |
| 1777516555 | 10.56° C | 76% | 1017.9 hPa | 0 mm | - | 0 W/m² | - |
| 1777516250 | 10.56° C | 79% | 1017.7 hPa | 0 mm | - | 0 W/m² | - |
| 1777515947 | 10.56° C | 75% | 1017.7 hPa | 0 mm | - | 0 W/m² | - |
| 1777515644 | 11.11° C | 73% | 1017.9 hPa | 0 mm | - | 0 W/m² | - |
* Rain latest hour (hover to see other rain measurements)
** Current wind speed in m/s (hover to see current wind gust speed)